Terminal Aerodrome Forecast
Issued by NWS Houston/Galveston, TX

Home | Current Version | Previous Version | Text Only | Print | Product List | Glossary On
Versions: 1 2 3 4 5 6 7 8 9 10 11 12 13 14 15 16 17 18 19 20 21 22 23 24 25 26 27 28 29 30 31 32 33 34 35 36 37 38 39 40 41 42 43 44 45 46 47 48 49 50
000
FTUS44 KHGX 190700 AAA
TAFCLL
TAF AMD
KCLL 190700Z 1907/2006 13008KT P6SM VCSH SCT030 OVC080
     FM190800 19004KT 5SM BR FEW006
     FM191500 21013KT P6SM SCT025 BKN250
     FM191800 24016G26KT P6SM FEW025 SCT040
     FM192200 28010KT P6SM VCTS BKN045CB
     FM200200 31007KT P6SM SCT100 BKN250
      AMD NOT SKED=

USA.gov is the U.S. government's official web portal to all federal, state and local government web resources and services.